This is the latest recevied weather packets stored in our database for station/object DC9VQ-13. If no packets are shown the sender has not sent any weather packets the latest 1 day(s).
| Time | Temp. | Humidity | Pressure | Rain* | Wind** | Luminosity | Snow |
|---|---|---|---|---|---|---|---|
| 1778036274 | 13.33° C | 93% | 1005.7 hPa | 0 mm | - | - | - |
| 1778035672 | 13.33° C | 93% | 1005.7 hPa | 0 mm | - | - | - |
| 1778035070 | 13.33° C | 93% | 1005.7 hPa | 0 mm | - | - | - |
| 1778033264 | 13.33° C | 93% | 1005.8 hPa | 0 mm | - | - | - |
| 1778032662 | 13.33° C | 92% | 1005.8 hPa | 0 mm | - | - | - |
| 1778030855 | 13.89° C | 92% | 1005.8 hPa | 0 mm | - | - | - |
| 1778030254 | 13.89° C | 92% | 1005.8 hPa | 0 mm | - | - | - |
| 1778029652 | 13.89° C | 92% | 1005.9 hPa | 0.25 mm | - | - | - |
| 1778029050 | 14.44° C | 92% | 1005.8 hPa | 0.51 mm | - | - | - |
| 1778028448 | 14.44° C | 92% | 1005.9 hPa | 0.76 mm | - | - | - |
| 1778027245 | 14.44° C | 92% | 1006 hPa | 1.02 mm | - | - | - |
| 1778026642 | 14.44° C | 91% | 1006.1 hPa | 1.02 mm | - | - | - |
| 1778025438 | 14.44° C | 91% | 1006.3 hPa | 0.51 mm | - | - | - |
| 1778024836 | 14.44° C | 90% | 1006.3 hPa | 0.25 mm | - | - | - |
| 1778024234 | 14.44° C | 90% | 1006.3 hPa | 0 mm | - | - | - |
| 1778021224 | 15° C | 89% | 1006.5 hPa | 0 mm | - | - | - |
| 1778020622 | 15° C | 89% | 1006.6 hPa | 0 mm | - | - | - |
| 1778020020 | 15° C | 88% | 1006.7 hPa | 0 mm | - | - | - |
| 1778014000 | 15° C | 87% | 1007.1 hPa | 0 mm | - | - | - |
| 1778010990 | 15° C | 87% | 1007 hPa | 0 mm | - | - | - |
| 1778009184 | 15.56° C | 86% | 1006.9 hPa | 0 mm | - | - | - |
| 1778008582 | 15.56° C | 86% | 1006.8 hPa | 0 mm | - | - | - |
* Rain latest hour (hover to see other rain measurements)
** Current wind speed in m/s (hover to see current wind gust speed)